Minot, ND

9:09 AM CST on January 22, 2018 (GMT -0600)
Minot International

Weather History for KMOT - May, 2012

Change the Weather History Date:

Sunday, May 6, 2012

  Actual Average Record
Temperature  
Mean Temperature 52 °F 52 °F  
Max Temperature 60 °F 64 °F 88 °F (1992)
Min Temperature 43 °F 40 °F 15 °F (1931)
Degree Days  
Heating Degree Days 14    
Cooling Degree Days 0 0  
Month to date cooling degree days 0 0  
Year to date cooling degree days 1 1  
Growing Degree Days 2 (Base 50)    
Moisture  
Dew Point 42 °F    
Average Humidity 66    
Maximum Humidity 89    
Minimum Humidity 43    
Precipitation  
Precipitation 0.03 in 0.07 in 1.85 in (1964)
Month to date precipitation 0.44 0.39  
Year to date precipitation 4.21 3.28  
Sea Level Pressure  
Sea Level Pressure 29.93 in    
Wind  
Wind Speed 19 mph (SW)    
Max Wind Speed 31 mph    
Max Gust Speed 41 mph    
Visibility 10 miles    
Events Rain    
T = Trace of Precipitation, MM = Missing Value Source: NWS Daily Summary

Daily Weather History Graph

Daily Weather History Graph

Search for Another Location

Airport or City:

Trip Planner

Search our weather history database for the weather conditions in past years. The results will help you decide how hot, cold, wet, or windy it might be!

Date:

Astronomy

May. 06, 2012 Rise Set
Actual Time 6:17 AM CDT 9:06 PM CDT
Civil Twilight 5:41 AM CDT 9:42 PM CDT
Nautical Twilight 4:55 AM CDT 10:29 PM CDT
Astronomical Twilight 4:01 AM CDT 11:24 PM CDT
Moon 10:20 PM CDT (5/6) 6:25 AM CDT (5/6)
Length of Visible Light 16h 01m
Length of Day
14h 49m
Full, 100% of the Moon is Illuminated
May 6
Full
May 12
Last Quarter
May 20
New
May 28
First Quarter
Jun 4
Full

Hourly Weather History & Observations

Time (CDT) Temp. Windchill Dew Point Humidity Pressure Visibility Wind Dir Wind Speed Gust Speed Precip Events Conditions
12:20 AM 55.4 °F - 53.6 °F 94% 29.95 in 7.0 mi WSW 3.5 mph - 0.00 in   Overcast
12:36 AM 53.6 °F - 51.8 °F 94% 29.95 in 8.0 mi WSW 16.1 mph - 0.00 in Rain Light Rain
12:54 AM 52.0 °F - 48.9 °F 89% 29.96 in 9.0 mi WSW 11.5 mph - 0.02 in Rain Light Rain
1:16 AM 51.8 °F - 48.2 °F 88% 29.94 in 6.0 mi WSW 12.7 mph - 0.01 in Rain Rain
1:25 AM 50.0 °F - 48.2 °F 94% 29.94 in 4.0 mi WSW 10.4 mph - 0.02 in Rain Light Rain
1:54 AM 50.0 °F - 46.9 °F 89% 29.97 in 10.0 mi WSW 12.7 mph - 0.03 in Rain Light Rain
2:54 AM 48.9 °F - 45.0 °F 86% 29.97 in 10.0 mi West 11.5 mph - 0.00 in   Overcast
3:54 AM 48.0 °F - 44.1 °F 86% 29.99 in 10.0 mi WSW 11.5 mph - 0.00 in   Mostly Cloudy
4:54 AM 46.9 °F - 42.1 °F 83% 29.99 in 10.0 mi WSW 13.8 mph - N/A   Clear
5:54 AM 46.0 °F 41.0 °F 42.1 °F 86% 29.99 in 10.0 mi WSW 10.4 mph - N/A   Clear
6:54 AM 44.6 °F 40.2 °F 41.0 °F 87% 29.97 in 10.0 mi SW 8.1 mph - N/A   Clear
7:54 AM 46.9 °F - 42.1 °F 83% 29.99 in 10.0 mi SW 9.2 mph - N/A   Clear
8:54 AM 50.0 °F - 42.1 °F 74% 29.98 in 10.0 mi SW 17.3 mph 25.3 mph N/A   Clear
9:54 AM 53.1 °F - 42.1 °F 66% 29.98 in 10.0 mi SW 16.1 mph 24.2 mph N/A   Clear
10:54 AM 54.0 °F - 39.0 °F 57% 29.96 in 10.0 mi SSW 18.4 mph 27.6 mph N/A   Partly Cloudy
11:54 AM 54.0 °F - 37.9 °F 55% 29.96 in 10.0 mi SW 19.6 mph 27.6 mph N/A   Mostly Cloudy
12:54 PM 55.9 °F - 37.0 °F 49% 29.95 in 10.0 mi SSW 21.9 mph 34.5 mph N/A   Mostly Cloudy
1:54 PM 57.0 °F - 36.0 °F 45% 29.94 in 10.0 mi SW 26.5 mph 36.8 mph N/A   Mostly Cloudy
2:54 PM 57.9 °F - 37.9 °F 47% 29.93 in 10.0 mi SSW 27.6 mph 35.7 mph N/A   Overcast
3:54 PM 59.0 °F - 37.0 °F 44% 29.91 in 10.0 mi SW 23.0 mph 36.8 mph N/A   Mostly Cloudy
4:54 PM 55.9 °F - 39.0 °F 53% 29.90 in 10.0 mi SW 20.7 mph 35.7 mph N/A   Overcast
5:54 PM 54.0 °F - 39.0 °F 57% 29.89 in 10.0 mi SW 25.3 mph 38.0 mph N/A   Overcast
6:54 PM 53.1 °F - 39.0 °F 59% 29.87 in 10.0 mi SW 26.5 mph 35.7 mph N/A   Overcast
7:54 PM 52.0 °F - 42.1 °F 69% 29.85 in 10.0 mi SW 23.0 mph 36.8 mph N/A   Overcast
8:54 PM 50.0 °F - 43.0 °F 77% 29.85 in 10.0 mi WSW 26.5 mph 38.0 mph 0.00 in   Overcast
9:03 PM 50.0 °F - 39.2 °F 66% 29.82 in 10.0 mi WSW 28.8 mph 41.4 mph N/A   Overcast
9:54 PM 48.9 °F - 41.0 °F 74% 29.87 in 10.0 mi West 29.9 mph 40.3 mph N/A   Overcast
10:39 PM 48.2 °F - 39.2 °F 71% 29.87 in 10.0 mi WSW 20.7 mph 29.9 mph N/A   Scattered Clouds
10:54 PM 48.0 °F - 41.0 °F 77% 29.90 in 10.0 mi WSW 20.7 mph 31.1 mph N/A   Clear
11:54 PM 48.9 °F - 41.0 °F 74% 29.91 in 10.0 mi WSW 19.6 mph 27.6 mph N/A   Mostly Cloudy